Location: Kelshall
(52.0000°N, 0.0500°W)
Time: 17:27:37
(UTC+00:00)

Resurs 1-3 - Pass Details

Date: 18 September 2020
Orbit: 631 x 632 km, 97.9° (Epoch: 30 October)

Event Time Altitude Azimuth Distance (km) Brightness Sun altitude
Exits shadow 20:01:13 26° 159° (SSE) 1,241 4.7 -17.7°
Maximum altitude 20:03:39 82° 73° (ENE) 646 3.5 -18.1°
Drops below altitude 10° 20:08:04 10° 347° (NNW) 2,027 6.7 -18.7°
Sets 20:10:16 0° 347° (NNW) 2,940 7.7 -19.0°
